Location: Sihaung
(22.8641°N, 94.0549°E)
Time: 14:00:56
(UTC+00:00)

Cosmos 2322 Rocket - Pass Details

Date: 03 March 2021
Orbit: 832 x 852 km, 71.0° (Epoch: 10 April)

Event Time Altitude Azimuth Distance (km) Brightness Sun altitude
Rises 22:59:43 0° 333° (NNW) 3,399 5.1 -15.3°
Reaches altitude 10° 23:02:14 10° 328° (NNW) 2,465 4.3 -14.8°
Maximum altitude 23:07:38 48° 256° (WSW) 1,101 2.4 -13.5°
Drops below altitude 10° 23:13:03 10° 183° (S) 2,466 4.6 -12.3°
Sets 23:15:35 0° 177° (S) 3,401 5.4 -11.7°
